Vertical_Velocity
-2 2 1 -1 -1 -1 0 1 2 -1 -0 -0 -0 -1 -1 -1 -1 -1 0 -1 -1 -1 -1 -2 -1 -1 -1 -1 -0 -1 -1 -1 -1 -1 0 -0 -0 -1 -1 -1 -1 -2 -1 -1
-1 -1 -1 -1 -1 -1 -1 -1 -1 -1 3 1 -0 -0 -1 -1 -1 -1 -1 -1 -0 -3 -2 -2 -1 -0 -1 -0 -0 -1 -1 -0 -1 -0 -0 0 -0 -0 -1 -1 -1 -1 -1 -1
-3 -1 -1 0 -0 -2 -1 -0 0 0 -0 -2 -1 -2 -2 0 -1 -1 -0 0 -3 -1 -1 -0 -0 -1 -1 -1 -1 -1 -1 0 -0 -1 -0 0 -0 -1 -1 -0 -1 -1 -0 0
-1 -1 -1 -0 -1 -1 -0 -0 0 -0 -1 -1 -0 -1 -1 -1 -1 -1 -2 -4 -2 -1 -0 -1 -1 -0 -1 -1 0 0 0 -0 0 -0 -0 -0 -1 -1 -2 -1 0 0 -0 1
-0 -0 -0 0 -1 -0 -0 0 -1 -1 -0 -0 -2 4 -7 -0 -2 -3 -3 -1 -1 -0 -1 -2 -0 -1 -2 -1 0 -1 -0 0 1 0 -0 -0 -1 -1 -1 0 2 0 1 1
0 0 -2 -1 -1 -1 -1 0 -1 0 0 -1 -2 -10 -7 -3 -1 -2 -1 -1 -2 -1 -1 -1 -1 -2 -1 -1 -2 -1 0 1 1 1 -0 -0 -1 -1 -1 -0 0 -0 -1 -2
-1 -1 -2 -2 -1 -1 -1 -2 -1 -0 -0 -0 -1 -1 -2 -2 -1 -0 -2 -2 -0 -1 -1 -2 -2 -2 -2 -2 -1 -0 1 1 0 -0 -0 -0 -1 -0 1 -0 -1 -1 -3 -2
-1 -2 -3 -1 -2 -0 -2 -1 0 -1 -0 -0 -1 -1 -1 0 -0 -2 -1 -1 -1 -2 -3 -3 -3 -2 -2 -1 -2 -1 -1 -1 -0 -1 -1 -0 -1 -1 0 -0 -1 -0 -1 -1
-2 -1 -1 -1 -1 -0 -1 -1 0 0 -0 -1 -1 -1 -1 -1 -0 -2 -2 -2 -2 -3 -2 -3 -2 -1 -1 -3 -2 -1 -0 -1 -1 1 -1 1 -0 0 -0 -1 0 0 0 1
-1 -0 1 -1 -1 -0 -1 0 0 0 -1 -1 -1 -1 -2 -1 -3 -3 -3 -2 -2 -2 -3 -1 -1 -2 -2 -3 -2 -1 -1 0 0 0 -0 -2 -0 -1 -1 -2 0 3 1 1
-0 -0 -0 0 0 1 -0 0 0 -1 -2 -2 -1 -1 -1 -2 -2 -2 -2 -2 -2 -2 -1 -1 -2 -3 -3 -2 -1 -1 -1 -1 -1 -0 0 2 -2 -1 2 -1 0 1 0 4
0 -2 -1 0 1 1 1 0 -0 -1 -2 -1 -0 -1 -1 -1 -2 -2 -3 -2 -2 -1 -1 -1 -3 -3 -2 -2 -1 -1 -1 -1 -1 -0 -0 -1 -1 2 -2 -3 0 0 1 -1
0 -1 1 -0 -0 -0 1 -0 0 -1 -2 -0 -1 -1 -1 -2 -3 -2 -3 -2 -2 -1 -1 -2 -3 -3 -3 -1 -2 -1 -1 -2 -0 0 -1 -2 -1 -2 0 3 2 1 1 -0
-0 -1 -1 -1 -1 -0 -0 0 -0 -0 -1 -1 -1 -1 -2 -2 -3 -3 -2 -1 -1 -1 -2 -3 -4 -4 -3 -1 -1 -1 -2 -2 -1 0 0 -1 -2 -1 -0 1 -0 -0 -1 -0
-0 -1 -0 -1 -1 -0 -0 0 -0 -1 -2 -1 -1 -1 -2 -3 -2 -3 -2 -1 -0 -1 -2 -3 -4 -4 -3 -1 -1 -2 -2 -2 -1 -0 0 -1 -1 -1 -1 -1 -1 -2 -3 -2
0 -1 -0 -0 -0 -0 0 -0 -0 -1 -1 -1 -1 -1 -2 -2 -2 -2 -2 -1 -1 -1 -3 -4 -4 -4 -2 -1 -1 -2 -3 -2 -2 -1 -0 -0 -1 -1 -1 -1 0 0 1 1
0 -1 -0 -0 -0 -1 -1 -0 -2 -1 -1 -1 -0 -2 -2 -1 -2 -1 -2 -1 -1 -2 -3 -4 -4 -4 -3 -2 -2 -3 -4 -2 -2 -1 -1 -1 -1 -1 -1 -1 1 1 0 -0
-1 -1 -0 -0 -1 -1 -1 -1 -1 -1 -1 -0 -2 -2 -1 -3 -2 -1 -2 -1 -1 -2 -2 -3 -4 -3 -3 -3 -2 -3 -4 -2 -2 -2 -1 -1 -1 -1 -2 -1 -1 1 1 0
-1 -0 -1 -1 -1 -1 -1 -1 -1 -2 -2 -2 -2 -2 -1 -3 -2 -1 -2 -1 -1 -2 -3 -3 -3 -3 -2 -4 -3 -2 -3 -3 -2 -2 -2 -1 -1 -0 -1 -1 -1 0 1 1
-0 -1 -1 -0 -1 -1 -1 -1 -1 -2 -2 -2 -2 -2 -2 -2 -1 -1 -1 -1 -1 -2 -2 -3 -3 -2 -2 -4 -4 -3 -3 -2 -2 -2 -1 -1 -1 -1 -1 -0 -1 -1 0 1
-0 -1 -0 -1 -1 -1 -1 -2 -2 -2 -3 -2 -2 -2 -2 -3 -1 -1 -1 -1 -1 -2 -2 -3 -3 -2 -2 -3 -4 -4 -3 -3 -2 -1 -1 -1 -1 -1 -1 -1 -1 -2 -1 0
-0 -1 -1 -2 -2 -1 -2 -2 -3 -2 -2 -2 -2 -2 -1 -2 -1 -1 -1 -0 -1 -1 -2 -2 -4 -2 -2 -4 -4 -4 -3 -3 -2 -2 -1 -1 -1 -1 -1 -1 -1 -1 -1 -1
-1 -2 -1 -2 -2 -2 -2 -2 -2 -3 -3 -2 -2 -1 -1 -1 -1 -1 -0 -0 -1 -1 -1 -2 -3 -2 -2 -3 -4 -4 -4 -3 -3 -2 -1 -2 -0 -0 -1 -1 -1 -0 -1 -2
-1 -1 -1 -1 -2 -2 -2 -2 -3 -3 -2 -3 -2 -2 -2 -2 -1 -1 -0 -1 -1 -1 -1 -2 -3 -3 -2 -3 -3 -4 -4 -3 -3 -2 -1 -2 -1 -0 0 -1 -1 -1 -0 -1
-1 -1 -1 -2 -1 -1 -2 -3 -3 -3 -3 -3 -2 -2 -2 -2 -1 -0 -1 -0 0 -0 -0 -1 -2 -3 -2 -2 -3 -3 -4 -3 -2 -2 -2 -2 -1 -2 -1 -1 -1 -1 -1 -1
-0 -1 -1 -1 -2 -2 -2 -2 -3 -2 -3 -2 -2 -1 -1 -2 -2 -1 -1 -1 -0 0 -0 -1 -1 -3 -2 -2 -3 -3 -4 -4 -3 -2 -2 -2 -2 -2 -2 -1 -1 -2 -1 -1
-0 -1 -1 -1 -1 -1 -1 -2 -1 -1 -2 -1 -1 -1 -0 -0 -1 0 -1 -0 -0 0 0 -1 -1 -2 -2 -2 -2 -3 -4 -3 -2 -3 -2 -2 -2 -2 -2 -2 -1 -1 -2 -2
Height
5807 5808 5808 5807 5806 5805 5804 5802 5800 5797 5794 5791 5787 5783 5778 5773 5767 5760 5753 5745 5737 5728 5719 5710 5699 5689 5679 5669 5659 5648 5638 5628 5617 5606 5595 5584 5573 5563 5554 5545 5536 5527 5518 5508
5805 5805 5805 5804 5804 5802 5800 5798 5796 5794 5791 5787 5783 5779 5774 5768 5762 5755 5748 5740 5732 5723 5714 5703 5693 5683 5673 5663 5653 5643 5633 5622 5611 5600 5589 5578 5568 5559 5550 5542 5533 5523 5514 5504
5802 5802 5802 5803 5801 5799 5797 5796 5794 5791 5787 5784 5780 5775 5769 5764 5758 5751 5743 5736 5727 5718 5708 5697 5687 5678 5668 5658 5648 5638 5628 5616 5605 5594 5584 5573 5564 5555 5547 5539 5530 5520 5511 5501
5799 5800 5801 5800 5798 5796 5795 5793 5790 5788 5784 5780 5776 5771 5765 5759 5753 5746 5739 5731 5722 5713 5702 5691 5682 5673 5663 5653 5644 5633 5622 5611 5600 5589 5578 5568 5560 5552 5544 5536 5527 5518 5508 5499
5797 5797 5798 5796 5795 5794 5792 5790 5787 5785 5781 5777 5772 5768 5762 5756 5749 5742 5734 5726 5717 5706 5696 5687 5678 5668 5658 5649 5639 5628 5616 5605 5594 5583 5573 5564 5557 5550 5542 5534 5525 5516 5507 5497
5795 5795 5794 5793 5792 5790 5789 5788 5785 5781 5778 5774 5768 5762 5756 5750 5744 5737 5730 5721 5711 5701 5691 5682 5673 5664 5655 5644 5633 5622 5610 5599 5588 5579 5570 5562 5555 5548 5541 5532 5524 5514 5505 5495
5792 5792 5792 5790 5789 5788 5787 5787 5781 5778 5775 5770 5765 5760 5753 5747 5740 5733 5725 5715 5705 5696 5687 5678 5669 5660 5650 5639 5628 5616 5605 5594 5585 5575 5567 5560 5554 5547 5539 5531 5522 5513 5504 5495
5789 5789 5789 5788 5787 5786 5784 5781 5778 5775 5771 5767 5762 5756 5749 5743 5736 5728 5720 5709 5701 5692 5683 5674 5666 5656 5646 5635 5623 5612 5601 5591 5581 5573 5565 5559 5553 5546 5539 5531 5522 5514 5505 5496
5788 5787 5785 5785 5783 5782 5780 5778 5775 5772 5768 5763 5758 5752 5745 5739 5732 5724 5714 5705 5696 5688 5680 5672 5663 5652 5642 5631 5619 5608 5598 5588 5579 5571 5565 5559 5553 5547 5539 5531 5523 5515 5507 5499
5784 5783 5782 5781 5780 5778 5777 5775 5771 5767 5763 5758 5753 5747 5741 5734 5727 5719 5709 5701 5693 5685 5677 5669 5660 5650 5640 5628 5616 5606 5596 5587 5578 5571 5565 5559 5554 5547 5540 5532 5525 5517 5510 5501
5779 5779 5779 5778 5776 5775 5773 5770 5767 5763 5759 5754 5748 5742 5737 5730 5723 5714 5705 5698 5691 5683 5675 5667 5658 5648 5637 5625 5614 5604 5595 5586 5577 5571 5566 5561 5555 5549 5542 5535 5527 5520 5513 5505
5775 5775 5775 5774 5772 5770 5769 5766 5762 5759 5754 5750 5744 5739 5733 5726 5719 5710 5702 5696 5689 5682 5674 5666 5657 5646 5634 5623 5613 5603 5595 5586 5578 5572 5567 5562 5557 5551 5544 5537 5530 5522 5515 5507
5771 5770 5770 5769 5767 5766 5764 5761 5758 5754 5750 5745 5740 5735 5729 5723 5715 5707 5700 5694 5688 5681 5673 5665 5655 5644 5632 5621 5611 5603 5594 5586 5579 5573 5568 5563 5558 5552 5546 5541 5534 5526 5519 5511
5766 5766 5765 5764 5763 5762 5759 5757 5754 5750 5746 5741 5736 5731 5726 5719 5712 5704 5698 5692 5686 5680 5672 5664 5654 5643 5631 5619 5610 5602 5595 5587 5580 5574 5570 5565 5560 5555 5549 5543 5536 5530 5523 5516
5761 5760 5760 5759 5758 5757 5755 5752 5749 5745 5741 5737 5732 5728 5722 5716 5709 5702 5697 5691 5686 5679 5671 5663 5653 5642 5630 5619 5609 5602 5596 5589 5581 5575 5571 5566 5562 5557 5551 5546 5540 5534 5527 5521
5755 5755 5755 5754 5754 5752 5750 5748 5745 5741 5737 5733 5729 5724 5719 5713 5706 5701 5695 5691 5685 5678 5671 5662 5652 5641 5630 5619 5609 5602 5597 5591 5583 5577 5573 5568 5564 5559 5554 5549 5544 5539 5533 5527
5750 5750 5751 5750 5749 5748 5746 5743 5740 5737 5733 5730 5726 5721 5716 5710 5704 5699 5694 5690 5684 5678 5670 5662 5652 5642 5631 5619 5610 5603 5598 5592 5586 5579 5574 5570 5565 5561 5557 5552 5547 5543 5538 5532
5746 5746 5746 5746 5745 5743 5741 5739 5736 5733 5730 5726 5722 5718 5712 5707 5703 5698 5693 5689 5684 5678 5670 5662 5653 5643 5632 5621 5611 5604 5599 5594 5588 5582 5576 5571 5567 5563 5559 5554 5550 5546 5541 5537
5741 5742 5742 5741 5740 5739 5737 5735 5732 5729 5726 5723 5719 5715 5710 5705 5701 5696 5692 5688 5683 5677 5670 5662 5654 5644 5634 5623 5613 5606 5601 5596 5591 5585 5579 5574 5569 5565 5561 5557 5553 5549 5545 5541
5737 5737 5737 5736 5736 5735 5733 5731 5729 5726 5723 5720 5716 5712 5708 5703 5699 5695 5692 5688 5683 5678 5671 5663 5655 5646 5636 5626 5617 5608 5602 5598 5593 5588 5583 5577 5571 5566 5563 5559 5555 5551 5547 5544
5732 5732 5732 5732 5731 5730 5729 5727 5725 5722 5720 5716 5713 5709 5705 5701 5697 5694 5690 5687 5683 5677 5671 5664 5656 5647 5639 5630 5620 5612 5604 5599 5595 5590 5585 5580 5575 5569 5564 5560 5557 5554 5550 5547
5728 5728 5728 5728 5727 5726 5725 5724 5722 5719 5716 5713 5709 5706 5703 5699 5695 5692 5689 5686 5682 5677 5671 5665 5658 5649 5641 5633 5625 5616 5608 5601 5596 5592 5588 5583 5578 5573 5568 5563 5559 5556 5553 5549
5723 5724 5724 5724 5723 5722 5721 5720 5718 5715 5712 5709 5706 5703 5700 5697 5693 5690 5687 5684 5681 5676 5671 5665 5659 5651 5644 5636 5629 5621 5613 5605 5599 5594 5590 5585 5581 5576 5572 5567 5562 5558 5554 5551
5719 5719 5719 5719 5719 5718 5717 5716 5714 5712 5709 5706 5703 5700 5698 5694 5691 5688 5685 5682 5679 5675 5671 5666 5660 5653 5646 5639 5632 5625 5617 5610 5603 5597 5592 5587 5583 5579 5575 5571 5566 5562 5557 5553
5714 5715 5715 5715 5715 5714 5713 5712 5710 5708 5705 5702 5699 5697 5694 5691 5689 5685 5683 5680 5677 5674 5670 5666 5661 5655 5648 5642 5635 5628 5622 5615 5608 5602 5596 5590 5585 5581 5576 5572 5568 5565 5561 5557
5709 5710 5710 5710 5710 5710 5708 5707 5705 5703 5700 5698 5695 5693 5690 5688 5685 5682 5680 5678 5675 5672 5669 5665 5660 5656 5650 5644 5637 5631 5625 5619 5612 5606 5600 5594 5589 5583 5578 5574 5570 5566 5563 5559
5705 5705 5705 5705 5705 5704 5703 5701 5699 5697 5695 5692 5690 5687 5685 5683 5680 5678 5676 5674 5672 5670 5667 5663 5659 5655 5650 5644 5639 5633 5627 5621 5616 5610 5604 5598 5593 5587 5582 5577 5572 5568 5564 5560